RH
18 48 68 82 78 86 80 83 76 79 74 81 84 78 68 77 83 97 96 99 36 12 12 15 19 39 38 41 66 78 75 70 62 55 44 36 30 31 29 30 36 25 30 41
25 52 55 64 71 79 85 86 81 73 70 86 87 85 77 58 64 73 93 88 98 80 20 13 15 28 44 38 56 55 62 54 50 51 40 34 32 38 27 31 32 27 29 29
27 47 55 51 52 70 79 89 91 84 74 68 89 92 96 90 79 79 85 94 98 52 47 16 16 17 34 40 40 66 55 48 47 57 50 38 34 38 34 25 24 18 23 18
16 29 43 52 48 44 72 88 90 86 79 78 83 80 74 97 91 92 92 83 98 97 68 40 11 16 24 39 34 56 71 45 46 67 64 38 30 40 44 34 36 21 14 14
11 14 25 37 48 46 43 68 84 76 73 74 73 76 75 87 96 94 96 87 96 96 95 39 14 15 16 32 31 41 61 55 58 60 66 43 43 44 39 46 37 28 19 13
11 11 11 17 33 41 41 43 56 65 60 58 61 63 62 62 68 74 74 82 68 64 97 65 31 13 16 21 34 28 50 68 64 65 53 44 64 61 43 25 25 31 21 17
14 12 11 11 14 20 25 31 40 54 55 53 51 50 54 55 49 55 59 72 75 67 94 34 47 25 15 28 28 28 33 65 71 72 68 60 55 55 45 25 33 45 32 25
18 13 13 14 12 13 14 15 23 36 42 47 46 46 45 50 47 40 44 60 71 83 81 28 41 23 25 29 20 32 25 33 66 63 68 82 69 65 35 29 31 29 35 36
23 18 14 15 14 14 15 14 18 26 30 38 44 52 49 45 47 41 48 58 62 80 94 67 41 45 61 48 32 20 32 24 32 50 59 74 70 59 41 36 28 32 33 35
28 24 18 17 17 15 14 15 28 33 33 27 32 41 35 44 56 55 69 59 55 68 70 96 76 60 35 28 19 22 22 31 30 40 62 72 66 73 56 40 31 25 27 26
40 30 25 20 18 21 18 17 18 37 28 27 28 30 36 70 61 60 81 67 60 65 59 94 87 62 64 17 19 21 26 29 34 39 43 62 69 78 80 58 42 30 25 27
53 41 33 28 24 24 25 21 26 29 32 24 28 18 32 56 54 56 81 90 77 67 51 67 96 74 79 72 22 20 20 32 43 44 50 50 66 83 76 77 80 53 60 35
54 54 48 38 30 29 30 23 25 39 36 25 23 18 20 57 64 64 73 86 88 91 67 60 71 84 91 82 66 40 23 18 27 52 42 44 47 74 73 79 91 83 83 73
60 53 65 71 63 39 31 29 35 48 48 67 25 24 22 36 56 65 77 87 93 90 92 72 54 73 79 91 92 96 93 84 32 52 72 55 39 51 66 77 84 72 84 85
41 42 46 65 77 66 48 41 41 65 64 67 59 32 25 47 69 98 96 98 94 94 92 61 39 24 29 52 69 87 91 96 43 85 70 54 58 34 44 55 66 72 68 57
48 50 39 30 56 80 72 75 74 54 49 69 71 51 29 31 67 85 94 92 82 89 81 66 52 37 34 44 50 96 97 97 95 92 92 65 88 35 26 33 49 53 56 69
63 67 54 44 49 62 80 78 91 81 54 55 45 39 36 24 31 55 86 97 89 79 81 66 52 36 32 62 68 97 97 97 96 97 99 73 99 96 28 24 31 44 50 54
83 95 77 79 59 61 63 72 82 76 96 78 58 38 36 30 22 29 34 58 83 96 84 79 53 28 22 50 67 94 97 96 96 96 96 97 97 96 86 40 68 76 68 57
45 81 85 72 80 85 81 64 70 94 93 74 66 48 57 42 41 45 25 28 40 46 56 51 61 47 22 29 63 95 97 96 95 95 96 96 96 96 97 90 87 83 83 89
20 72 92 91 78 86 86 84 70 72 97 92 89 71 70 61 54 75 82 77 57 60 60 84 75 62 47 32 52 63 91 96 96 94 94 95 92 72 47 44 41 32 87 96
9 16 37 74 87 76 91 72 93 80 74 78 82 79 96 98 81 75 87 88 77 57 65 64 74 66 58 42 56 85 82 81 95 94 93 89 54 32 29 24 19 20 16 48
11 9 9 9 55 68 67 52 51 53 78 100 83 70 96 96 80 77 69 78 65 71 70 78 98 81 80 64 82 76 90 96 93 95 91 87 80 73 58 29 21 20 18 21
29 18 11 9 9 13 23 34 26 21 37 73 91 94 92 95 94 97 99 84 78 73 76 81 70 96 98 87 94 79 92 96 95 94 94 95 88 58 43 49 42 27 18 14
42 36 29 17 12 16 17 14 12 17 17 24 54 93 98 100 98 91 95 92 88 88 89 91 89 86 82 70 60 71 92 95 81 89 86 83 82 74 71 48 27 26 27 19
68 50 43 32 25 19 14 23 13 11 16 17 22 49 86 96 98 98 98 99 97 97 98 97 98 98 94 89 78 62 51 43 50 69 84 77 70 62 50 29 25 22 18 16
51 67 57 60 60 51 35 27 28 20 10 11 14 18 72 96 100 96 97 97 96 94 92 100 98 99 98 100 98 98 91 92 99 99 99 89 73 66 61 44 33 25 19 17
Wind_Speed
30 31 27 24 25 24 24 19 17 17 15 15 14 13 11 10 11 6 4 5 15 16 18 18 15 14 13 12 14 12 12 13 14 13 12 9 10 13 14 15 14 14 15 16
31 30 29 29 27 26 24 21 20 18 17 17 18 15 13 15 13 10 8 8 8 16 19 18 18 17 14 12 12 13 14 13 16 14 12 12 11 13 14 14 14 14 15 17
30 32 33 29 27 27 25 23 22 20 19 20 21 19 18 16 15 14 13 14 6 17 19 20 20 19 17 14 12 12 13 13 15 16 13 11 13 13 13 13 13 15 15 14
36 36 36 34 30 28 28 26 25 24 23 22 21 23 21 20 20 14 16 13 15 12 19 24 23 22 21 18 17 15 15 13 14 17 15 14 12 13 13 13 13 14 15 14
35 36 37 36 34 30 28 29 29 29 28 27 25 21 21 21 14 9 17 12 14 17 16 26 27 26 24 22 19 18 18 17 13 14 16 16 14 13 13 13 13 13 14 14
36 37 38 37 36 35 34 33 33 32 32 31 28 24 19 14 16 13 9 14 16 15 14 28 27 23 22 24 22 22 21 20 17 15 15 17 15 15 14 15 15 14 14 14
33 39 38 36 38 38 37 36 36 35 36 33 28 28 19 19 13 10 10 9 18 14 16 24 25 25 24 24 25 24 23 23 20 18 16 16 16 16 17 17 16 15 15 14
32 34 34 34 34 32 33 35 38 38 36 30 31 33 26 25 22 19 16 14 14 18 18 22 28 27 25 26 26 26 25 25 24 21 20 17 15 16 17 17 16 15 16 15
31 32 33 33 34 32 34 37 37 38 35 33 35 31 25 26 22 20 17 18 15 15 20 25 28 29 26 29 27 27 27 26 25 23 20 18 18 17 17 16 17 18 17 15
29 29 31 32 32 33 34 33 37 40 38 35 35 32 24 19 18 15 19 19 17 18 22 25 28 30 30 31 31 27 27 26 25 24 22 20 21 20 19 19 18 18 18 16
27 30 31 32 33 33 34 35 37 38 37 36 34 29 21 19 15 16 21 21 18 19 18 29 31 36 33 33 33 33 29 27 26 26 25 24 22 22 22 22 21 21 19 18
26 29 30 32 34 34 34 33 33 36 38 38 38 32 25 26 26 21 19 22 19 18 10 8 19 32 33 36 34 36 37 33 31 29 28 27 26 25 26 25 24 23 19 20
24 29 30 33 36 36 36 35 36 35 35 37 34 33 27 25 23 21 21 23 21 19 13 9 6 8 28 34 40 40 40 39 36 34 32 31 30 29 29 27 27 24 23 21
19 23 29 34 35 38 38 37 38 37 37 34 34 33 27 27 27 25 25 24 25 25 18 9 5 8 15 17 31 36 45 44 38 37 34 35 34 32 32 31 28 27 25 24
18 19 24 30 37 38 40 40 39 41 40 36 32 33 28 26 28 25 23 23 21 34 15 15 13 13 15 19 20 29 39 47 39 39 40 39 39 36 34 33 32 31 29 27
22 23 21 27 33 39 41 41 39 40 42 42 39 36 32 30 31 29 29 27 24 18 20 19 22 20 17 20 20 31 35 51 46 45 43 44 40 41 39 37 34 34 33 33
19 19 25 28 32 32 41 45 43 40 42 40 36 34 34 33 33 35 34 31 30 24 18 22 22 20 19 16 20 23 34 50 50 48 46 46 41 43 42 38 36 35 36 37
16 15 22 27 35 36 39 43 43 42 39 39 34 33 33 30 33 35 38 40 35 28 20 15 17 20 20 21 17 16 31 32 37 42 51 47 43 44 46 39 31 32 38 43
20 17 18 20 23 35 36 37 42 35 41 41 40 35 33 32 30 30 32 36 37 36 29 28 26 28 26 23 22 24 23 19 16 16 39 49 31 28 36 50 44 36 41 47
22 21 20 22 21 24 35 35 35 38 35 35 37 41 35 33 34 24 25 23 28 27 26 26 28 27 25 25 26 23 26 17 16 9 17 20 16 20 22 26 30 28 28 31
22 24 26 24 23 19 20 23 27 31 36 36 26 24 31 34 33 34 30 31 32 31 30 31 31 30 32 27 28 26 23 24 23 19 10 14 19 18 23 24 24 26 25 22
26 25 24 25 26 25 22 20 22 25 27 28 31 29 28 33 34 36 37 37 35 32 32 31 35 34 34 32 35 32 30 30 32 23 20 18 17 23 24 18 18 18 20 22
28 26 26 26 23 25 24 27 26 25 24 32 38 36 34 36 38 41 41 40 38 36 37 39 39 36 32 31 32 33 28 27 21 24 22 21 25 24 25 25 26 26 27 27
28 28 25 25 25 23 21 21 26 29 26 26 28 34 38 41 34 39 39 40 40 39 41 43 42 41 41 39 36 37 39 39 36 33 33 32 30 32 33 33 35 34 34 35
19 24 25 25 24 25 25 23 21 26 30 28 28 30 42 43 41 34 39 40 46 47 48 43 43 45 45 45 43 43 45 45 41 40 41 40 40 42 41 41 42 43 44 43
16 17 21 22 21 22 24 26 26 24 25 29 30 30 30 44 38 43 36 37 42 47 46 50 49 48 48 47 46 45 44 44 43 44 45 47 48 49 50 51 51 50 49 49
Wind_Direction
210 209 209 210 206 206 208 211 203 206 216 226 230 219 204 207 210 183 171 159 183 191 177 172 175 166 151 154 151 148 137 147 127 141 142 139 136 121 111 110 116 126 131 133
205 206 207 205 202 208 210 212 207 207 208 215 227 204 199 207 221 215 212 240 302 211 187 181 181 173 169 164 164 153 146 141 142 141 143 147 143 133 123 118 122 126 127 132
203 207 210 206 204 205 210 213 211 211 210 216 216 230 216 211 214 217 199 232 231 185 203 193 186 181 180 172 177 165 152 158 153 145 148 154 149 141 137 134 134 129 131 136
201 206 212 210 206 204 205 214 214 214 214 216 224 234 233 223 219 213 221 229 233 242 204 212 190 189 185 180 182 179 168 165 166 157 157 164 159 152 148 151 158 148 143 143
202 204 212 217 211 208 208 215 217 220 218 220 225 232 241 240 196 275 225 233 228 239 261 200 199 192 187 187 187 183 175 167 177 171 168 171 169 167 157 163 172 160 160 158
203 204 209 213 213 213 211 216 221 224 227 225 229 235 244 256 273 279 271 249 258 254 245 203 208 197 193 189 193 189 185 176 178 187 175 172 180 183 174 170 174 178 179 170
207 206 206 211 214 212 214 215 224 227 230 233 232 238 240 255 260 256 294 289 250 245 227 202 209 201 204 197 196 194 192 191 182 189 188 182 187 190 193 179 181 181 189 189
215 215 211 210 217 218 219 219 226 231 234 236 239 244 244 255 260 263 271 275 265 214 213 211 202 207 201 212 202 198 201 197 194 192 193 195 194 196 200 197 188 192 195 192
212 219 214 209 214 213 213 218 223 228 236 236 242 244 246 254 260 261 252 247 257 247 227 211 212 211 211 214 217 204 206 201 201 195 196 201 201 201 202 206 197 197 198 197
216 218 219 216 210 214 216 214 217 227 232 232 238 243 247 252 246 236 239 238 250 245 252 230 209 212 214 212 215 212 211 210 206 202 198 201 208 204 204 208 207 203 204 202
215 216 217 221 217 216 215 216 219 225 233 238 241 239 235 229 238 242 231 234 242 252 251 219 203 210 214 214 213 217 214 213 215 213 205 204 212 214 212 213 212 208 210 208
214 217 220 221 224 222 221 218 225 227 231 235 241 240 234 236 245 245 236 243 240 241 242 225 222 202 218 224 224 217 217 216 216 217 216 212 212 216 216 218 217 215 217 218
223 216 216 223 225 223 226 224 223 229 233 235 238 243 235 232 235 237 242 239 228 238 213 213 242 239 221 233 229 221 220 220 219 221 219 217 214 217 220 224 222 219 223 218
229 225 220 218 225 226 227 227 229 231 234 237 234 240 235 236 238 239 238 237 232 255 197 212 241 254 248 260 249 235 220 224 219 224 223 224 220 216 222 225 224 224 227 229
238 231 227 225 224 224 226 228 229 232 237 240 242 241 231 233 232 222 226 227 242 228 250 245 265 277 272 262 259 244 234 230 218 224 224 227 228 222 223 228 229 230 231 234
238 242 239 231 229 226 227 228 233 232 235 239 243 245 239 233 235 235 239 245 244 242 250 257 264 278 279 271 265 247 233 228 220 219 224 224 231 226 224 225 232 235 234 236
257 252 235 231 225 227 229 228 229 234 235 239 240 244 246 242 240 238 239 240 240 237 239 252 255 271 271 269 274 230 228 220 214 221 220 221 228 232 226 223 233 238 239 238
250 242 236 233 227 234 233 229 231 234 238 243 241 241 239 240 238 235 237 245 244 235 224 239 254 265 263 267 285 232 214 226 230 222 224 228 231 230 223 223 225 237 241 244
247 233 242 238 231 233 232 230 227 234 231 238 242 241 240 237 239 239 239 243 249 256 260 254 252 266 268 260 264 247 224 234 226 242 226 226 206 208 221 220 219 236 245 240
238 237 234 249 245 241 227 231 235 233 236 229 239 242 247 248 240 245 241 241 239 240 240 241 244 252 255 253 256 261 255 250 232 227 208 182 184 193 206 216 217 238 245 237
237 237 238 240 244 244 226 231 234 234 233 240 239 236 238 232 233 231 228 231 231 233 240 239 240 238 247 248 248 243 244 264 248 245 151 174 190 208 213 218 224 229 239 250
234 232 235 237 235 238 233 231 236 238 230 226 226 223 233 238 245 238 242 235 233 238 234 230 233 231 237 238 243 239 235 239 241 217 190 202 214 220 219 222 232 239 247 247
237 232 230 232 233 235 236 236 234 230 228 226 222 227 231 231 229 230 229 233 238 241 241 231 225 232 233 239 236 241 226 215 239 224 218 223 221 229 231 240 252 257 255 252
235 235 230 228 229 229 228 231 231 231 226 226 227 225 224 224 230 231 236 237 236 237 236 232 233 236 238 238 242 243 234 241 258 254 242 248 250 244 247 252 257 254 260 264
236 231 231 232 232 234 233 231 228 228 230 228 231 228 226 229 225 221 228 230 230 230 226 231 233 233 237 239 241 242 246 249 253 251 245 244 246 243 245 250 254 258 262 260
243 233 227 228 230 233 237 237 234 232 227 226 231 231 230 232 231 226 227 233 238 231 227 228 229 232 235 237 240 244 247 250 247 244 247 251 253 250 248 254 257 257 258 258